RH
98 98 99 98 97 96 95 96 93 82 79 78 71 61 57 57 58 59 59 60 60 60 57 56 55 54 56
100 99 98 97 97 97 87 77 77 72 74 60 57 55 56 54 54 58 59 60 57 58 57 57 58 58 57
99 99 99 95 94 86 82 79 64 64 60 57 52 51 53 56 59 59 58 59 60 60 60 60 60 60 60
93 91 83 84 81 80 80 80 76 54 54 58 57 56 59 61 60 59 59 58 59 59 59 59 59 59 59
92 91 86 84 86 87 85 82 78 80 80 78 77 78 78 70 67 63 62 63 61 60 60 60 59 60 58
95 92 87 87 89 90 96 95 91 84 86 86 84 86 83 83 69 65 62 61 62 63 63 62 62 61 59
90 89 84 82 92 96 87 97 93 86 92 94 87 85 83 69 67 65 65 65 64 62 63 64 64 66 65
84 85 82 83 82 86 90 91 91 88 92 99 93 89 85 85 73 65 61 62 64 65 68 67 65 64 65
62 57 59 59 73 94 97 97 95 92 91 97 96 97 95 93 86 67 65 66 67 69 68 69 70 68 71
80 72 71 73 64 85 95 97 98 97 93 99 99 97 97 95 96 82 82 74 68 68 69 71 70 76 85
79 82 84 91 91 90 86 94 98 94 79 95 98 94 98 95 98 95 95 84 83 82 79 76 74 75 89
84 94 95 96 86 83 86 93 95 96 90 94 98 98 97 93 93 96 93 92 96 96 96 85 81 77 77
98 97 98 97 96 84 90 92 93 93 92 95 97 95 98 96 95 89 92 96 91 96 98 97 95 94 96
97 98 95 89 89 95 98 96 97 94 93 94 98 98 96 94 96 94 86 95 96 92 93 94 91 91 92
90 90 89 91 92 95 95 96 98 95 92 84 90 94 96 97 97 91 88 86 85 91 93 93 89 88 90
94 95 96 96 96 95 96 98 97 95 95 95 91 98 93 92 86 93 91 90 89 92 93 97 89 84 80
97 96 96 96 92 95 95 98 96 96 94 94 98 100 97 95 89 64 88 95 93 90 90 93 93 87 82
Wind_Speed
2 2 1 4 3 4 3 3 3 9 12 11 13 12 12 12 11 12 13 12 13 13 13 13 14 14 15
2 1 1 2 2 3 2 3 3 7 11 12 10 11 11 10 10 11 12 11 12 13 13 14 15 15 16
3 1 1 2 1 2 2 1 3 7 8 9 8 8 10 12 12 11 9 10 12 13 13 14 15 16 16
3 2 2 2 2 2 0 0 2 2 3 6 9 9 8 9 11 11 10 12 12 13 14 14 14 15 16
2 1 1 1 0 1 2 2 2 1 2 2 2 3 4 7 8 11 11 11 12 13 14 15 15 16 17
1 1 1 1 2 1 2 2 2 1 2 4 2 3 4 4 10 10 11 12 13 13 13 14 15 16 17
2 1 1 1 2 1 1 2 3 3 1 4 2 3 3 4 11 12 12 11 9 8 11 14 15 17 18
3 2 2 3 3 4 4 2 2 3 2 2 2 3 3 4 8 4 2 6 10 12 13 14 15 17 19
3 2 4 4 5 3 0 3 2 2 1 1 3 3 3 3 3 5 9 13 12 13 15 16 17 17 12
4 4 5 4 4 3 3 3 2 3 2 2 2 2 5 2 2 4 4 12 14 16 18 17 15 6 5
2 2 2 3 3 3 3 4 3 3 3 2 2 1 2 5 3 3 3 7 6 8 15 16 15 12 6
2 2 1 1 2 2 2 1 3 4 4 3 3 3 3 6 6 3 4 6 5 4 3 11 15 18 19
1 1 1 2 4 4 3 4 5 4 5 6 6 6 5 6 8 8 8 3 5 5 3 5 6 4 7
1 2 2 2 3 2 2 2 4 4 5 5 5 5 8 9 9 10 8 6 3 6 5 5 7 7 8
2 2 2 3 4 3 3 4 4 4 4 4 4 6 8 10 10 10 9 10 9 9 7 9 9 7 7
2 3 4 4 4 4 4 4 6 5 5 3 4 3 4 7 18 11 8 9 8 8 8 9 11 9 8
3 4 4 4 7 5 5 3 6 5 7 5 2 2 7 10 4 13 7 4 4 9 8 8 11 11 9
Wind_Direction
79 94 103 142 161 156 165 165 223 260 272 277 262 263 264 271 276 279 278 282 281 283 283 284 280 284 282
79 108 88 149 165 120 195 214 205 243 250 255 261 266 273 280 285 280 278 280 277 279 281 278 280 280 278
92 69 106 103 135 190 201 225 256 256 266 275 279 288 286 284 274 271 284 289 285 281 280 279 279 281 283
69 62 47 68 61 97 218 349 288 338 326 313 288 283 288 290 286 285 284 281 277 276 273 271 270 271 272
59 59 63 51 61 26 76 5 320 341 325 283 299 305 296 291 287 289 285 276 275 279 284 284 282 281 278
58 42 33 70 57 98 102 49 324 291 327 286 230 270 263 268 277 279 280 286 284 283 290 291 288 288 281
118 154 118 148 111 70 173 158 223 278 16 288 325 292 287 282 299 293 288 282 283 296 315 308 298 296 290
118 162 190 192 181 171 175 205 282 290 156 263 337 277 303 310 329 289 285 347 330 317 311 299 299 294 290
62 312 318 271 198 113 187 85 310 267 56 93 330 302 306 302 311 356 339 330 317 309 309 305 300 294 296
356 359 9 351 25 158 152 145 178 342 258 51 331 357 322 283 274 313 301 295 298 304 305 303 298 289 289
339 343 13 32 51 58 125 136 157 233 249 74 215 294 236 298 271 254 246 270 272 287 291 297 295 290 278
1 343 338 303 302 323 294 253 214 231 259 220 250 190 243 276 279 281 273 255 243 252 256 282 287 288 288
321 288 249 277 311 307 303 282 259 246 253 222 232 253 240 250 274 287 308 298 259 253 239 250 260 260 286
255 261 266 304 298 271 267 281 278 264 250 234 231 241 265 254 256 275 276 279 273 274 272 268 269 252 255
271 307 299 288 279 264 270 274 265 281 278 278 259 238 248 254 267 264 274 277 276 277 281 281 280 270 248
283 274 277 277 279 271 260 262 276 277 277 265 274 294 291 264 234 261 262 265 271 272 269 275 286 280 265
263 264 265 266 289 279 273 264 275 275 269 267 257 224 282 281 260 262 257 251 272 278 271 262 272 275 274